Orbital Elements at Epoch 2459200.5 (2020-Dec-17.0) TDB
Reference: JPL 23 (heliocentric ecliptic J2000)
Element | Value | Uncertainty (1-sigma) | Units |
e | .1183260487217273 | 3.9422e-08 | |
a | 2.665014744207411 | 1.719e-08 | au |
q | 2.349674079740204 | 1.0515e-07 | au |
i | 5.671587661987206 | 4.2457e-06 | deg |
node | 203.5058551635613 | 4.6033e-05 | deg |
peri | 135.2720901843399 | 5.0051e-05 | deg |
M | 218.6813724760648 | 2.2259e-05 | deg |
tp | 2459824.299124956409 (2022-Sep-01.79912496) | 0.00010137 | TDB |
period | 1589.087644841952 4.35 | 1.5375e-05 4.209e-08 | d yr |
n | .2265450877857684 | 2.1919e-09 | deg/d |
Q | 2.980355408674619 | 1.9224e-08 | au |
|
| | Orbit Determination Parameters
Additional Information
|